This is the latest recevied weather packets stored in our database for station/object WC4PEM-15. If no packets are shown the sender has not sent any weather packets the latest 10 day(s).
| Time | Temp. | Humidity | Pressure | Rain* | Wind** | Luminosity | Snow |
|---|---|---|---|---|---|---|---|
| 1777560759 | 24.44° C | 81% | 1012.6 hPa | 0 mm | - | - | - |
| 1777560623 | 24.44° C | 81% | 1012.6 hPa | 0 mm | - | - | - |
| 1777560323 | 24.44° C | 84% | 1012.5 hPa | 0 mm | - | - | - |
| 1777560023 | 24.44° C | 83% | 1012.5 hPa | 0 mm | - | - | - |
| 1777559815 | 24.44° C | 86% | 1012.6 hPa | 0 mm | - | - | - |
| 1777559723 | 24.44° C | 86% | 1012.6 hPa | 0 mm | - | - | - |
| 1777559543 | 23.89° C | 87% | 1012.5 hPa | 0 mm | - | - | - |
| 1777559423 | 23.89° C | 86% | 1012.7 hPa | 0 mm | - | - | - |
| 1777559123 | 23.89° C | 87% | 1012.5 hPa | 0 mm | - | - | - |
| 1777558823 | 23.89° C | 87% | 1012.3 hPa | 0 mm | - | - | - |
| 1777558662 | 23.89° C | 88% | 1012.5 hPa | 0 mm | - | - | - |
| 1777558523 | 23.89° C | 88% | 1012.5 hPa | 0 mm | - | - | - |
| 1777558404 | 23.89° C | 88% | 1012.7 hPa | 0 mm | - | - | - |
| 1777558223 | 23.89° C | 88% | 1012.7 hPa | 0 mm | - | - | - |
| 1777558061 | 23.33° C | 91% | 1012.8 hPa | 0 mm | - | - | - |
| 1777557923 | 23.33° C | 91% | 1012.8 hPa | 0 mm | - | - | - |
| 1777557623 | 22.78° C | 92% | 1012.8 hPa | 0 mm | - | - | - |
| 1777557323 | 22.78° C | 92% | 1012.9 hPa | 0 mm | - | - | - |
| 1777557023 | 22.22° C | 94% | 1013 hPa | 0 mm | - | - | - |
| 1777556871 | 22.22° C | 94% | 1013.1 hPa | 0 mm | - | - | - |
| 1777556734 | 21.67° C | 96% | 1013.1 hPa | 0 mm | - | - | - |
| 1777556723 | 22.22° C | 94% | 1013.1 hPa | 0 mm | - | - | - |
| 1777556423 | 22.22° C | 95% | 1013.2 hPa | 0 mm | - | - | - |
| 1777556277 | 22.22° C | 95% | 1012.9 hPa | 0 mm | - | - | - |
| 1777556123 | 22.22° C | 95% | 1012.9 hPa | 0 mm | - | - | - |
* Rain latest hour (hover to see other rain measurements)
** Current wind speed in m/s (hover to see current wind gust speed)